GW4557 Weather Reports


time (UTC)temp
F
wind
direction
speed
knots
gust
knots
rain 1hr
in
rain 24hr
in
rain mn
in
humidity
%
barometer
mb
20260506072704 51 340 8.7 14.8 0.00 0.00 0.00 91 1009.7
20260506071704 51 341 8.7 14.8 0.00 0.00 0.00 91 1009.6
20260506071206 51 347 6.1 13.9 0.00 0.00 0.00 91 1009.6
20260506070704 51 328 6.1 13.0 0.00 0.00 0.00 91 1009.6
20260506070204 51 324 7.0 12.2 0.00 0.00 0.00 91 1009.5
20260506061204 51 334 7.8 13.0 0.00 0.00 0.00 92 1009.1
20260506060204 51 334 7.0 13.9 0.00 0.00 0.00 92 1009.1
20260506051203 51 341 8.7 13.9 0.00 0.00 0.00 93 1008.6
20260506050704 51 330 7.8 13.0 0.00 0.00 0.00 93 1008.6
20260506050204 51 333 7.0 12.2 0.00 0.00 0.00 93 1008.5
20260506044704 51 348 5.2 8.7 0.00 0.00 0.00 93 1008.5
20260506044203 51 343 5.2 8.7 0.00 0.00 0.00 93 1008.5
20260506043704 51 344 4.3 10.4 0.00 0.00 0.00 93 1008.5
20260506043203 51 332 4.3 10.4 0.00 0.00 0.00 93 1008.5
20260506042704 51 339 5.2 10.4 0.00 0.00 0.00 93 1008.4
20260506041704 51 344 5.2 10.4 0.00 0.00 0.00 93 1008.5
20260506041204 51 335 6.1 11.3 0.00 0.00 0.00 93 1008.5
20260506040704 51 336 6.1 11.3 0.00 0.00 0.00 93 1008.5
20260506040204 51 350 4.3 8.7 0.00 0.00 0.00 93 1008.5
20260506035704 52 336 5.2 10.4 0.00 0.00 0.00 93 1008.4
20260506035204 52 336 4.3 11.3 0.00 0.00 0.00 93 1008.4
20260506034704 52 354 7.0 11.3 0.00 0.00 0.00 93 1008.4
20260506034204 52 342 6.1 11.3 0.00 0.00 0.00 93 1008.4
20260506033704 52 340 5.2 10.4 0.00 0.00 0.00 93 1008.4
20260506033204 52 344 5.2 11.3 0.00 0.00 0.00 93 1008.4
20260506032704 52 340 5.2 11.3 0.00 0.00 0.00 93 1008.5
20260506032204 52 343 6.1 10.4 0.00 0.00 0.00 93 1008.5
20260506031704 52 331 7.8 11.3 0.00 0.00 0.00 93 1008.5
20260506031204 52 330 6.1 11.3 0.00 0.00 0.00 93 1008.5
20260506030704 52 337 5.2 8.7 0.00 0.00 0.00 93 1008.5
20260506030204 53 343 4.3 7.8 0.00 0.00 0.00 93 1008.5
20260506025703 53 343 4.3 7.8 0.00 0.00 0.00 93 1008.5
20260506025204 53 337 2.6 7.0 0.00 0.00 0.00 93 1008.5
20260506024704 53 337 4.3 6.1 0.00 0.00 0.00 93 1008.5
20260506024204 53 334 3.5 6.1 0.00 0.00 0.00 93 1008.5
20260506023204 53 343 4.3 6.1 0.00 0.00 0.00 93 1008.5
20260506022704 53 334 3.5 5.2 0.00 0.00 0.00 93 1008.5
20260506022204 53 349 2.6 5.2 0.00 0.00 0.00 93 1008.5
20260506021204 52 357 2.6 4.3 0.00 0.00 0.00 93 1008.5
20260506020704 51 346 1.7 2.6 0.00 0.00 0.00 93 1008.5
20260506020204 51 314 0.9 4.3 0.00 0.00 0.00 93 1008.5
20260506015203 52 341 1.7 4.3 0.00 0.00 0.00 93 1008.6
20260506014704 52 330 2.6 5.2 0.00 0.00 0.00 93 1008.6
20260506014204 52 336 2.6 5.2 0.00 0.00 0.00 93 1008.6
20260506013204 51 337 1.7 6.1 0.00 0.00 0.00 93 1008.7
20260506012704 52 334 2.6 6.1 0.00 0.00 0.00 93 1008.7
20260506012204 52 326 4.3 7.0 0.00 0.00 0.00 93 1008.7
20260506011704 52 327 5.2 7.0 0.00 0.00 0.00 93 1008.7
20260506011204 52 326 5.2 6.1 0.00 0.00 0.00 93 1008.8
20260506010704 52 329 3.5 6.1 0.00 0.00 0.00 93 1008.8
20260506010204 52 329 4.3 6.1 0.00 0.00 0.00 93 1008.8
20260506005703 52 326 4.3 6.1 0.00 0.00 0.00 93 1008.9
20260506004204 52 328 4.3 5.2 0.00 0.00 0.00 93 1009.0
20260506003703 52 300 3.5 5.2 0.00 0.00 0.00 93 1009.1
20260506003204 52 301 4.3 5.2 0.00 0.00 0.00 93 1009.1
20260506002704 52 302 4.3 5.2 0.00 0.00 0.00 93 1009.2
20260506002204 52 296 2.6 2.6 0.00 0.00 0.00 93 1009.2
20260506000703 52 279 0.9 5.2 0.00 0.00 0.00 93 1009.2
20260506000205 51 216 1.7 5.2 0.00 0.00 0.00 93 1009.2
20260505235704 51 205 2.6 5.2 0.00 0.00 0.00 93 1009.1
20260505234704 50 202 2.6 4.3 0.00 0.00 0.00 93 1009.1
20260505234204 50 209 1.7 4.3 0.00 0.00 0.00 93 1009.1
20260505233704 50 227 1.7 4.3 0.00 0.00 0.00 93 1009.2
20260505233204 50 247 2.6 4.3 0.00 0.00 0.00 93 1009.2
20260505232704 50 254 2.6 4.3 0.00 0.00 0.00 93 1009.2
20260505232204 50 254 2.6 4.3 0.00 0.00 0.00 93 1009.2
20260505231204 51 239 2.6 4.3 0.00 0.00 0.00 93 1009.2
20260505230704 51 251 2.6 4.3 0.00 0.00 0.00 92 1009.2
20260505230204 51 241 4.3 5.2 0.00 0.00 0.00 92 1009.3
20260505225204 51 234 4.3 5.2 0.00 0.00 0.00 92 1009.4
20260505224204 50 210 2.6 5.2 0.00 0.00 0.00 92 1009.4
20260505223704 50 210 2.6 6.1 0.00 0.00 0.00 92 1009.4
20260505223204 50 227 4.3 6.1 0.00 0.00 0.00 92 1009.4
20260505222704 50 252 4.3 5.2 0.00 0.00 0.00 92 1009.4
20260505222204 50 255 4.3 6.1 0.00 0.00 0.00 92 1009.3
20260505221704 50 253 4.3 6.1 0.00 0.00 0.00 92 1009.4
20260505221203 51 257 5.2 7.0 0.00 0.00 0.00 92 1009.5
20260505220704 51 256 5.2 7.0 0.00 0.00 0.00 92 1009.5
20260505220204 50 243 5.2 7.0 0.00 0.00 0.00 91 1009.6
20260505215703 51 237 5.2 6.1 0.00 0.00 0.00 91 1009.7
20260505215203 51 243 4.3 6.1 0.00 0.00 0.00 91 1009.8
20260505214703 51 234 4.3 6.1 0.00 0.00 0.00 91 1009.8
20260505214204 51 224 4.3 6.1 0.00 0.00 0.00 91 1010.0
20260505213704 51 218 4.3 5.2 0.00 0.00 0.00 91 1010.0
20260505213204 51 215 2.6 6.1 0.00 0.00 0.00 91 1010.1
20260505212704 51 242 4.3 6.1 0.00 0.00 0.00 91 1010.1
20260505212204 51 241 4.3 6.1 0.00 0.00 0.00 90 1010.2
20260505211705 52 243 4.3 6.1 0.00 0.00 0.00 90 1010.2
20260505211204 52 237 4.3 6.1 0.00 0.00 0.00 90 1010.3
20260505210704 52 242 4.3 5.2 0.00 0.00 0.00 89 1010.3
20260505210205 53 243 2.6 5.2 0.00 0.00 0.00 89 1010.4
20260505205704 53 248 3.5 5.2 0.00 0.00 0.00 88 1010.4
20260505205204 53 243 3.5 6.1 0.00 0.00 0.00 88 1010.4
20260505204704 53 247 4.3 7.0 0.00 0.00 0.00 88 1010.4
20260505203704 54 259 5.2 8.7 0.00 0.00 0.00 88 1010.4
20260505203204 54 254 5.2 7.0 0.00 0.00 0.00 87 1010.4
20260505202704 54 250 3.5 7.8 0.00 0.00 0.00 86 1010.4
20260505202204 55 252 4.3 7.8 0.00 0.00 0.00 86 1010.4
20260505201704 54 256 5.2 7.8 0.00 0.00 0.00 86 1010.3
20260505201204 54 247 5.2 8.7 0.00 0.00 0.00 86 1010.3
20260505200704 54 260 6.1 8.7 0.00 0.00 0.00 86 1010.3
20260505195704 54 263 5.2 8.7 0.00 0.00 0.00 87 1010.2
20260505195204 54 263 5.2 8.7 0.00 0.00 0.00 86 1010.1
20260505194704 54 266 6.1 7.8 0.00 0.00 0.00 86 1010.0
20260505194204 54 266 6.1 10.4 0.00 0.00 0.00 85 1010.0
20260505193704 55 265 5.2 10.4 0.00 0.00 0.00 84 1010.0
20260505193204 55 260 6.1 11.3 0.00 0.00 0.00 84 1009.9
20260505192704 55 261 7.0 11.3 0.00 0.00 0.00 83 1010.0
20260505192204 55 260 7.0 11.3 0.00 0.00 0.00 83 1009.9
20260505191704 55 259 7.8 12.2 0.00 0.00 0.00 82 1009.9
20260505191204 56 259 7.8 14.8 0.00 0.00 0.00 82 1009.8
20260505190704 56 256 8.7 14.8 0.00 0.00 0.00 81 1009.8
20260505190204 56 254 9.6 14.8 0.00 0.00 0.00 81 1009.9
20260505185703 57 258 9.6 13.9 0.00 0.00 0.00 80 1009.8
20260505185205 57 261 10.4 14.8 0.00 0.00 0.00 80 1009.8
20260505184204 57 258 11.3 15.6 0.00 0.00 0.00 79 1009.8
20260505183704 58 249 10.4 14.8 0.00 0.00 0.00 78 1009.8
20260505183203 58 255 10.4 14.8 0.00 0.00 0.00 77 1009.7
20260505182703 58 248 8.7 13.9 0.00 0.00 0.00 77 1009.7
20260505182204 58 252 9.6 17.4 0.00 0.00 0.00 76 1009.7
20260505181703 58 252 10.4 17.4 0.00 0.00 0.00 76 1009.7
20260505180704 59 258 9.6 15.6 0.00 0.00 0.00 75 1009.7
20260505180204 59 260 12.2 18.2 0.00 0.00 0.00 75 1009.8
20260505175704 59 254 11.3 18.2 0.00 0.00 0.00 74 1009.8
20260505175204 60 262 13.0 17.4 0.00 0.00 0.00 71 1009.8
20260505174704 60 270 11.3 17.4 0.00 0.00 0.00 69 1009.8
20260505174204 61 266 9.6 18.2 0.00 0.00 0.00 70 1009.8
20260505173204 61 255 11.3 18.2 0.00 0.00 0.00 70 1009.8
20260505172704 61 264 12.2 19.1 0.00 0.00 0.00 69 1009.7
20260505172204 61 248 12.2 19.1 0.00 0.00 0.00 71 1009.7
20260505171704 61 254 11.3 18.2 0.00 0.00 0.00 72 1009.8
20260505165704 62 248 14.8 21.7 0.00 0.01 0.00 69 1009.8
20260505165203 62 269 14.8 21.7 0.00 0.01 0.00 69 1009.9
20260505164704 63 260 14.8 20.9 0.00 0.01 0.00 70 1009.9
20260505164204 61 279 14.8 21.7 0.00 0.01 0.00 70 1009.9
20260505163704 63 278 15.6 21.7 0.00 0.01 0.00 68 1010.0
20260505162703 64 259 15.6 21.7 0.00 0.01 0.00 67 1009.9
20260505161204 63 251 15.6 24.3 0.00 0.01 0.00 70 1009.9
20260505160704 64 250 14.8 24.3 0.00 0.01 0.00 70 1009.9
20260505153204 63 244 13.9 21.7 0.00 0.01 0.00 68 1009.8
20260505152704 64 260 16.5 21.7 0.00 0.01 0.00 70 1009.9
20260505152203 63 246 13.9 21.7 0.00 0.01 0.00 69 1009.9
20260505151704 63 239 12.2 22.6 0.00 0.01 0.00 68 1009.9
20260505151204 64 236 13.0 22.6 0.00 0.01 0.00 68 1009.9
20260505150704 63 263 14.8 21.7 0.00 0.01 0.00 68 1009.9
20260505150204 64 253 13.9 21.7 0.00 0.01 0.00 70 1009.9
20260505140204 65 250 13.0 20.9 0.00 0.01 0.00 70 1010.0
20260505124704 64 240 13.0 20.9 0.00 0.01 0.00 68 1010.1
20260505124205 63 244 13.9 20.0 0.00 0.01 0.00 69 1010.1
20260505123704 64 236 11.3 20.0 0.00 0.01 0.00 72 1010.1
20260505123204 63 233 12.2 20.0 0.00 0.01 0.00 71 1010.1
20260505122704 64 245 12.2 20.0 0.00 0.01 0.00 69 1010.1
20260505121703 64 256 10.4 20.0 0.00 0.01 0.00 70 1010.0
20260505120704 63 248 12.2 18.2 0.00 0.01 0.00 71 1010.1
20260505120205 63 254 11.3 17.4 0.00 0.01 0.00 70 1010.1
20260505115704 64 240 10.4 17.4 0.00 0.01 0.00 71 1010.1
20260505115204 64 255 11.3 17.4 0.00 0.01 0.00 71 1010.1
20260505114704 63 260 12.2 17.4 0.00 0.01 0.00 72 1010.1
20260505113704 63 271 12.2 18.2 0.00 0.01 0.00 73 1010.2
20260505113204 62 269 13.9 18.2 0.00 0.01 0.00 74 1010.2
20260505112704 62 237 10.4 17.4 0.00 0.01 0.00 73 1010.2
20260505112204 63 247 8.7 13.9 0.00 0.02 0.00 73 1010.3
20260505111704 61 270 10.4 17.4 0.00 0.02 0.00 79 1010.3
20260505110703 62 252 11.3 17.4 0.00 0.02 0.00 73 1010.4
20260505110205 62 260 10.4 17.4 0.00 0.02 0.00 70 1010.4
20260505102204 61 269 11.3 13.9 0.00 0.06 0.00 74 1010.5
20260505101704 61 277 9.6 13.9 0.00 0.06 0.00 73 1010.5
20260505101204 62 284 7.8 13.0 0.00 0.07 0.00 71 1010.5
20260505100704 61 289 6.1 13.9 0.00 0.08 0.00 72 1010.5
20260505100204 61 288 8.7 13.9 0.00 0.08 0.00 73 1010.5
20260505095704 63 278 8.7 13.9 0.00 0.08 0.00 72 1010.5
20260505095204 60 287 6.1 11.3 0.00 0.09 0.00 75 1010.5
20260505094704 61 330 4.3 11.3 0.00 0.09 0.00 75 1010.5
20260505094203 61 306 8.7 12.2 0.00 0.09 0.00 75 1010.5
20260505093704 61 305 6.1 14.8 0.00 0.10 0.00 72 1010.6
20260505093204 62 297 8.7 14.8 0.00 0.11 0.00 72 1010.5
20260505092704 62 306 7.8 14.8 0.00 0.11 0.00 74 1010.5
20260505092204 61 282 10.4 14.8 0.00 0.12 0.00 75 1010.5
20260505091704 62 279 8.7 12.2 0.00 0.13 0.00 76 1010.5
20260505091204 61 292 6.1 13.9 0.00 0.14 0.00 77 1010.5
20260505090704 61 265 10.4 13.9 0.00 0.15 0.00 75 1010.5
20260505090204 61 291 8.7 14.8 0.00 0.16 0.00 75 1010.5
20260505085704 61 286 10.4 14.8 0.00 0.17 0.00 75 1010.6
20260505085204 61 291 6.1 12.2 0.00 0.17 0.00 77 1010.5
20260505084204 60 279 6.1 12.2 0.00 0.19 0.00 78 1010.6
20260505083704 60 300 7.8 12.2 0.00 0.20 0.00 77 1010.6
20260505083204 59 281 7.0 12.2 0.00 0.21 0.00 78 1010.6
20260505082704 60 300 6.1 12.2 0.00 0.22 0.00 78 1010.6
20260505082203 60 302 5.2 12.2 0.00 0.23 0.00 78 1010.5
20260505081204 60 305 10.4 13.0 0.00 0.24 0.00 77 1010.5
20260505080704 59 308 7.8 13.9 0.00 0.24 0.00 79 1010.5
20260505075704 59 297 9.6 13.0 0.00 0.25 0.00 80 1010.6
20260505075204 59 288 8.7 13.0 0.00 0.25 0.00 82 1010.6
20260505074704 59 313 8.7 13.0 0.00 0.26 0.00 82 1010.6
20260505074203 59 317 8.7 14.8 0.00 0.26 0.00 82 1010.5
20260505073704 59 301 10.4 14.8 0.00 0.26 0.00 83 1010.6
20260505073203 59 288 7.8 13.0 0.00 0.27 0.00 82 1010.5